This demonstration page uses our WeatherBlox Daily Observations layout. Learn more.

Hourly Observations for March 5, 2015

Temp ( °F °C ) Dew Point ( °F °C ) Humidity (%) Winds ( mph kmh ) Pressure ( in mb ) Visibility ( mi km ) Precip ( " mm )
12:15 am 00:15 Clear 8 -13.6 -1 -18.2 69 69 ENE 7 11 30.62 1037 10 16.0934 0 0
12:35 am 00:35 Clear 7 -13.7 -1 -18.6 67 67 NE 7 11 30.62 1037 10 16.0934 0 0
12:55 am 00:55 Clear 6 -14.5 -1 -18.4 72 72 E 6 9 30.62 1037 10 16.0934 0 0
1:15 am 01:15 Clear 6 -14.6 -1 -18.5 72 72 E 6 9 30.65 1038 10 16.0934 0 0
1:35 am 01:35 Clear 3 -16 -3 -19.7 73 73 E 5 7 30.65 1038 10 16.0934 0 0
1:55 am 01:55 Clear 5 -14.8 -1 -18.6 73 73 E 5 7 30.65 1038 10 16.0934 0 0
2:15 am 02:15 Clear 5 -15.1 -2 -19.1 72 72 E 3 6 30.65 1038 10 16.0934 0 0
2:35 am 02:35 Clear 6 -14.2 -1 -18.4 71 71 E 6 9 30.62 1037 10 16.0934 0 0
2:55 am 02:55 Clear 5 -15.1 -3 -19.3 71 71 E 5 7 30.65 1038 10 16.0934 0 0
3:15 am 03:15 Clear 4 -15.4 -3 -19.2 73 73 ESE 7 11 30.65 1038 10 16.0934 0 0
3:35 am 03:35 Clear 4 -15.5 -3 -19.2 74 74 E 6 9 30.62 1037 10 16.0934 0 0
3:55 am 03:55 Clear 3 -16.2 -3 -19.7 75 75 E 7 11 30.62 1037 10 16.0934 0 0
4:15 am 04:15 Clear 3 -15.9 -3 -19.7 73 73 E 6 9 30.62 1037 10 16.0934 0 0
4:35 am 04:35 Clear 3 -16.2 -4 -19.8 74 74 ESE 5 7 30.62 1037 10 16.0934 0 0
4:55 am 04:55 Clear 5 -15.1 -2 -19.1 72 72 ESE 3 6 30.62 1037 10 16.0934 0 0
5:15 am 05:15 Clear 4 -15.5 -2 -19.1 74 74 Calm 30.62 1037 10 16.0934 0 0
5:35 am 05:35 Clear 4 -15.5 -3 -19.2 74 74 SE 3 6 30.62 1037 10 16.0934 0 0
5:55 am 05:55 Clear 4 -15.8 -3 -19.5 73 73 SE 3 6 30.65 1038 10 16.0934 0 0
6:15 am 06:15 Clear 5 -15.1 -2 -19 72 72 SSE 3 6 30.65 1038 10 16.0934 0 0
6:35 am 06:35 Clear 5 -15.2 -2 -19.1 72 72 SSE 3 6 30.65 1038 10 16.0934 0 0
6:55 am 06:55 Clear 4 -15.5 -3 -19.5 72 72 SSE 5 7 30.65 1038 10 16.0934 0 0
7:15 am 07:15 Sunny 4 -15.7 -4 -19.8 71 71 S 5 7 30.65 1038 10 16.0934 0 0
7:35 am 07:35 Sunny 5 -14.9 -2 -19 71 71 S 8 13 30.65 1038 10 16.0934 0 0
7:55 am 07:55 Sunny 6 -14.4 -1 -18.5 71 71 SSE 6 9 30.62 1037 10 16.0934 0 0
8:15 am 08:15 Sunny 9 -12.6 1 -17.1 69 69 SSE 8 13 30.62 1037 10 16.0934 0 0
8:35 am 08:35 Sunny 11 -11.6 1 -17 65 65 S 9 15 30.65 1038 10 16.0934 0 0
8:55 am 08:55 Sunny 13 -10.5 3 -16.2 63 63 S 10 17 30.62 1037 10 16.0934 0 0
9:15 am 09:15 Sunny 15 -9.6 3 -16.2 59 59 S 14 22 30.62 1037 10 16.0934 0 0
9:35 am 09:35 Sunny 16 -9.1 2 -16.8 54 54 S 18 30 30.59 1036 10 16.0934 0 0
9:55 am 09:55 Sunny 17 -8.5 4 -15.5 57 57 SSE 14 22 30.56 1035 10 16.0934 0 0
11:15 am 11:15 Sunny 23 -4.9 8 -13.2 53 53 S 12 19 30.53 1034 10 16.0934 0 0
11:35 am 11:35 Sunny 25 -3.9 9 -12.9 50 50 S 10 17 30.5 1033 10 16.0934 0 0
11:55 am 11:55 Sunny 27 -2.9 10 -12.5 48 48 S 8 13 30.48 1032 10 16.0934 0 0
12:15 pm 12:15 Sunny 29 -1.8 10 -12.2 45 45 S 10 17 30.48 1032 10 16.0934 0 0
12:55 pm 12:55 Sunny 32 0.1 13 -10.8 44 44 S 10 17 30.42 1030 10 16.0934 0 0
1:15 pm 13:15 Sunny 34 0.9 11 -11.5 39 39 SSW 12 19 30.42 1030 10 16.0934 0 0
1:35 pm 13:35 Sunny 36 2 11 -11.8 36 36 SW 12 19 30.39 1029 10 16.0934 0 0
1:55 pm 13:55 Sunny 37 2.8 10 -12.3 32 32 SW 12 19 30.36 1028 10 16.0934 0 0
2:15 pm 14:15 Sunny 38 3.6 10 -12.3 30 30 SW 14 22 30.36 1028 10 16.0934 0 0
2:35 pm 14:35 Sunny 39 4 9 -13 28 28 SW 14 22 30.33 1027 10 16.0934 0 0
2:55 pm 14:55 Sunny 40 4.6 9 -13 27 27 SW 14 22 30.3 1026 10 16.0934 0 0
3:15 pm 15:15 Sunny 41 5.1 8 -13.1 26 26 SW 10 17 30.3 1026 10 16.0934 0 0
3:35 pm 15:35 Sunny 42 5.3 8 -13.2 25 25 SW 12 19 30.3 1026 10 16.0934 0 0
3:55 pm 15:55 Sunny 41 5.2 8 -13.5 25 25 SSW 9 15 30.3 1026 10 16.0934 0 0
4:15 pm 16:15 Sunny 43 6 9 -13 24 24 SW 8 13 30.27 1025 10 16.0934 0 0
4:35 pm 16:35 Partly Cloudy 43 6.2 6 -14.2 22 22 SSW 12 19 30.27 1025 10 16.0934 0 0
4:55 pm 16:55 Mostly Cloudy 43 6 7 -14.1 22 22 SW 9 15 30.27 1025 10 16.0934 0 0
5:15 pm 17:15 Mostly Cloudy 42 5.8 7 -14 23 23 SSW 7 11 30.27 1025 10 16.0934 0 0
5:35 pm 17:35 Partly Cloudy 42 5.4 8 -13.5 24 24 S 9 15 30.27 1025 10 16.0934 0 0
5:55 pm 17:55 Sunny 41 4.9 9 -13 26 26 SSE 7 11 30.27 1025 10 16.0934 0 0
6:15 pm 18:15 Sunny 38 3.4 8 -13.2 29 29 SSE 9 15 30.3 1026 10 16.0934 0 0
6:35 pm 18:35 Clear 37 2.7 7 -14 28 28 S 9 15 30.3 1026 10 16.0934 0 0
6:55 pm 18:55 Clear 32 0.2 7 -13.8 34 34 S 7 11 30.33 1027 10 16.0934 0 0
7:15 pm 19:15 Clear 32 0 7 -14 34 34 S 9 15 30.33 1027 10 16.0934 0 0
7:35 pm 19:35 Clear 32 0 7 -14.1 34 34 S 9 15 30.33 1027 10 16.0934 0 0
7:55 pm 19:55 Clear 32 0 6 -14.4 33 33 S 9 15 30.33 1027 10 16.0934 0 0
8:15 pm 20:15 Clear 32 0 6 -14.5 33 33 S 10 17 30.33 1027 10 16.0934 0 0
8:35 pm 20:35 Clear 32 -0.1 6 -14.6 33 33 S 9 15 30.33 1027 10 16.0934 0 0
8:55 pm 20:55 Clear 31 -0.5 5 -15 33 33 S 10 17 30.33 1027 10 16.0934 0 0
9:15 pm 21:15 Clear 31 -0.6 5 -15 33 33 S 14 22 30.33 1027 10 16.0934 0 0
9:35 pm 21:35 Clear 31 -0.3 5 -15.2 32 32 SSW 12 19 30.33 1027 10 16.0934 0 0
9:55 pm 21:55 Clear 30 -1 6 -14.7 35 35 SSW 9 15 30.33 1027 10 16.0934 0 0
10:15 pm 22:15 Clear 30 -1.2 6 -14.2 37 37 SSW 10 17 30.33 1027 10 16.0934 0 0
10:35 pm 22:35 Clear 30 -1.2 7 -13.7 38 38 SSW 9 15 30.3 1026 10 16.0934 0 0
10:55 pm 22:55 Clear 30 -1.2 8 -13.1 40 40 SW 9 15 30.33 1027 10 16.0934 0 0
11:15 pm 23:15 Clear 29 -1.6 10 -12.2 45 45 SW 8 13 30.33 1027 10 16.0934 0 0
11:35 pm 23:35 Clear 33 0.3 11 -11.5 41 41 WSW 10 17 30.3 1026 10 16.0934 0 0
11:55 pm 23:55 Clear 32 0.1 12 -11 43 43 WSW 9 15 30.3 1026 10 16.0934 0 0

Powered by AerisWeather